Simultaneous Nadir Overpasses (SNOs) Predictions

Prediction of SNOs between GOES-15 and METOP-A Satellite Orbit:

Table of predicted SNOs for the next 14.0 days since TLE Epoch: 10/19/2012
Index Date Time (GOES-15) GOES-15 Lat,Lon METOP-A Lat,Lon Distance(km) Time Diff (sec)
1 10/20/2012 06:40:41 0.33,-135.33 -0.11,-137.29 224.26 80
2 10/21/2012 06:17:21 0.33,-135.31 0.98,-132.29 343.19 80
3 10/22/2012 18:36:11 -0.32,-135.29 0.04,-136.85 178.42 80
4 10/23/2012 18:18:12 -0.32,-135.27 -1.11,-131.86 389.32 80
5 10/25/2012 06:37:11 0.32,-135.25 0.08,-136.46 136.99 80
6 10/26/2012 06:13:50 0.32,-135.23 1.18,-131.46 430.19 80
7 10/27/2012 18:32:40 -0.32,-135.20 -0.12,-136.00 92.26 80
8 10/28/2012 18:14:40 -0.32,-135.18 -1.28,-131.02 475.05 80
9 10/30/2012 06:33:39 0.31,-135.15 0.21,-135.60 51.48 80
10 11/01/2012 18:31:47 -0.30,-135.08 -0.26,-135.15 9.15 80




NCC Satellite Simultaneous Nadir Overpasses (SNOs) Prediction Service
